Overview Statistics Trail Chart Weather Telemetry Raw packets
 

This is the latest recevied weather packets stored in our database for station/object KV9E. If no packets are shown the sender has not sent any weather packets the latest 10 day(s).

<< 2 3 4 5 6 7 8 >>
Time Temp. Humidity Pressure Rain* Wind** Luminosity Snow
1788600776 23.33° C 84% 1014.6 hPa 0 mm - 0 W/m² -
1788600472 23.33° C 85% 1014.5 hPa 0 mm - 0 W/m² -
1788600166 23.33° C 84% 1014.6 hPa 0 mm - 0 W/m² -
1788599861 23.33° C 84% 1014.5 hPa 0 mm - 0 W/m² -
1788599556 23.89° C 83% 1014.6 hPa 0 mm - 0 W/m² -
1788599255 23.89° C 81% 1014.5 hPa 0 mm - 0 W/m² -
1788598951 23.89° C 81% 1014.4 hPa 0 mm - 0 W/m² -
1788598650 23.89° C 82% 1014.6 hPa 0 mm - 0 W/m² -
1788598345 23.89° C 82% 1014.5 hPa 0 mm - 0 W/m² -
1788598076 23.89° C 82% 1014.5 hPa 0 mm - 0 W/m² -
1788597745 23.89° C 81% 1014.5 hPa 0 mm - 0 W/m² -
1788597440 23.89° C 81% 1014.4 hPa 0 mm - 0 W/m² -
1788597135 23.89° C 82% 1014.4 hPa 0 mm - 0 W/m² -
1788596831 23.89° C 83% 1014.7 hPa 0 mm - 0 W/m² -
1788596526 23.89° C 83% 1014.7 hPa 0 mm - 0 W/m² -
1788596221 23.89° C 83% 1014.7 hPa 0 mm - 0 W/m² -
1788595916 23.89° C 83% 1014.8 hPa 0 mm - 0 W/m² -
1788595610 23.89° C 83% 1014.7 hPa 0 mm - 0 W/m² -
1788595310 23.33° C 84% 1014.6 hPa 0 mm - 0 W/m² -
1788595009 23.33° C 87% 1014.5 hPa 0 mm - 0 W/m² -
1788594708 23.33° C 88% 1014.8 hPa 0 mm - 0 W/m² -
1788594407 23.33° C 87% 1014.8 hPa 0 mm - 0 W/m² -
1788594103 23.33° C 89% 1014.9 hPa 0 mm - 0 W/m² -
1788593799 22.78° C 91% 1014.9 hPa 0 mm - 0 W/m² -
1788593494 23.33° C 91% 1015 hPa 0 mm - 0 W/m² -

* Rain latest hour (hover to see other rain measurements)
** Current wind speed in m/s (hover to see current wind gust speed)